CHINASAT 1A (ZX 1A)

Last updated on Oct. 22, 2020, 5:53 a.m. UTC

1 37804U 11047A   20294.98535527 -.00000350  00000-0  00000-0 0  9995
2 37804   0.0327 350.0645 0002014 296.4949 227.9171  1.00269343 33361
UTC
Height (km)
Latitude
Longitude
Inclination
Orbital Period
UTC large
Height (km)
Speed (km/s)
/
Latitude / Longitude
Inclination (degrees)
Orbital Period (minutes)
Azimuth
Elevation
Range (km)
Doppler Factor
iOS Compass Heading
iOS Angle

Next 30 passes for location: Hong Kong

Rise time Rise Azimuth (degrees) Set time Set Azimuth (degrees) Duration Max altitude (degrees)

No matching passes for this satellites